Theta_e
303 304 305 305 305 305 306 307 308 309 309 310 311 312 313 314 314 315 315 316 317 318 317 316 316 315 314 312 309 307 306 305 305 304 303 303 303 302 302 302 302 303 303 304 304 305 310 319 324 324 323 323 322 322 320 320 324 327 331 336 335 336 337 337 338 331 332 335 328 324 323 325 327 324 323 325 326 325 325 325 326 326 325 326 326 327 325 322
303 303 304 305 305 305 305 306 307 308 308 309 310 311 312 312 313 314 314 315 317 317 318 317 316 316 315 314 313 311 308 307 306 305 304 304 303 303 303 303 302 302 302 303 304 304 308 318 325 324 324 324 323 322 321 320 322 328 333 332 331 337 334 328 330 326 326 330 326 324 323 324 326 324 324 326 325 324 327 327 327 328 327 326 328 327 325 321
304 304 304 304 305 305 305 305 306 307 308 308 309 310 310 311 311 313 313 314 315 317 317 317 316 316 315 315 314 313 312 310 308 306 306 305 305 304 303 303 302 302 303 303 305 307 308 315 323 325 324 324 323 323 321 322 323 325 329 333 334 332 327 323 324 325 325 327 325 324 324 325 326 325 325 326 325 325 327 329 327 328 327 327 328 327 323 321
304 304 304 304 304 304 305 305 306 307 308 308 308 308 309 309 310 312 313 313 313 315 317 317 317 317 316 316 314 314 313 310 309 308 308 307 306 306 305 303 303 302 303 302 304 310 312 313 320 323 324 324 323 323 322 322 323 323 326 335 334 324 325 326 324 325 325 325 325 324 324 325 326 326 326 325 327 329 326 326 327 327 327 327 328 326 324 322
303 304 304 304 304 304 304 305 306 306 307 308 308 308 308 308 308 309 312 313 313 314 315 316 317 317 317 317 315 315 312 309 312 315 314 312 309 309 308 306 304 303 303 303 303 310 316 317 318 321 323 324 324 323 323 322 322 324 325 327 326 320 325 327 324 326 324 324 325 324 325 325 325 326 326 325 331 333 327 326 327 327 327 327 327 327 324 323
303 303 303 304 304 304 304 305 305 305 306 307 307 308 308 307 307 307 309 312 312 313 314 315 317 317 318 318 317 317 312 310 316 318 317 317 315 313 312 311 308 306 304 303 303 309 318 320 321 323 323 323 324 324 324 322 321 326 325 321 322 322 324 325 324 325 324 324 324 323 324 324 324 325 325 325 328 330 326 326 327 326 327 327 327 327 326 326
303 303 303 304 304 304 304 305 305 305 305 306 306 307 307 308 307 307 308 310 312 312 313 314 315 317 318 318 317 317 314 313 314 315 314 314 315 316 315 316 313 311 308 304 303 310 319 323 323 324 324 324 323 323 323 322 321 324 326 321 321 323 323 324 324 324 324 324 324 323 323 323 324 325 324 324 326 327 326 327 326 327 327 327 328 327 327 328
302 302 303 303 304 304 304 305 304 304 305 305 306 306 306 307 307 307 307 308 310 311 312 312 314 316 318 319 317 317 316 315 312 312 312 309 312 317 315 315 316 317 313 307 304 310 319 323 324 323 324 324 323 323 323 322 322 324 326 322 320 322 322 323 323 322 323 323 323 322 321 322 323 323 322 323 325 326 326 326 326 327 327 326 327 327 328 328
302 302 303 303 303 304 304 305 304 304 304 305 305 305 306 306 307 307 307 307 308 310 311 312 313 315 316 318 317 317 316 315 312 313 313 309 310 316 316 313 316 319 315 309 306 310 317 322 324 323 323 322 322 323 322 323 325 324 323 322 320 322 321 321 322 321 321 321 321 322 322 322 322 322 322 323 324 326 325 326 326 326 326 327 327 327 327 327
301 302 302 303 303 303 304 304 304 305 304 304 305 305 305 306 306 307 307 307 307 308 309 311 313 314 316 317 316 317 315 313 312 312 313 312 309 314 318 315 314 317 316 311 307 307 314 320 322 322 323 321 321 322 321 323 325 322 321 321 320 321 321 320 321 321 320 320 320 322 324 322 320 322 324 324 324 325 325 325 325 326 326 326 327 327 327 327
301 301 302 302 302 303 303 304 304 305 305 304 305 305 305 305 306 306 307 307 307 307 308 309 312 313 315 317 316 316 315 312 312 311 312 312 309 312 317 317 314 315 317 315 310 306 309 317 320 321 323 321 320 321 321 322 321 320 320 321 321 319 320 320 320 321 320 321 320 321 324 321 320 322 323 323 323 325 325 325 325 325 326 326 327 327 326 327
300 301 301 301 302 302 303 304 304 304 305 305 305 305 305 305 305 306 306 307 307 307 308 308 311 313 314 316 316 316 316 314 313 313 313 312 310 310 313 316 315 313 315 316 314 310 307 313 317 320 322 319 319 319 319 321 320 320 319 324 326 322 322 321 319 321 320 321 320 319 323 322 322 323 322 321 322 323 323 324 324 324 325 326 326 327 326 327
300 300 300 301 302 302 302 303 303 304 304 305 305 304 305 305 305 305 306 307 307 307 307 308 310 312 314 316 316 316 316 316 315 314 314 313 311 310 310 312 312 311 312 313 314 313 309 309 313 319 321 319 320 319 319 318 318 321 320 322 326 324 326 322 318 321 320 320 320 320 323 323 324 323 320 322 322 322 323 323 323 323 323 324 324 325 325 326
299 300 300 300 301 302 302 302 303 303 304 305 305 305 305 305 305 305 306 306 307 307 307 308 309 311 313 315 315 315 316 316 316 316 315 315 312 312 312 312 311 310 312 313 312 312 310 311 315 320 321 321 321 320 322 321 320 324 321 320 322 323 330 325 316 319 322 320 320 321 323 322 324 322 319 321 321 321 322 322 322 322 322 322 323 324 324 324
299 299 300 300 301 301 301 302 302 303 303 304 305 305 304 305 305 305 306 307 308 308 307 308 308 310 312 313 313 314 314 315 316 316 316 316 314 313 314 313 311 311 314 313 311 310 309 313 319 321 321 321 321 322 325 325 325 326 321 322 323 321 328 326 315 315 322 322 319 322 326 325 324 320 319 321 320 320 321 321 322 322 322 322 322 323 323 323
298 299 299 300 300 300 301 301 302 302 303 303 304 304 304 305 305 305 306 307 308 307 307 308 308 309 311 312 312 313 313 313 314 315 316 316 316 314 315 314 312 314 316 313 313 313 313 317 321 321 321 321 322 325 325 323 325 325 320 323 326 323 323 323 318 314 318 321 319 320 326 329 326 320 319 319 319 320 320 320 321 321 322 321 321 321 321 322
298 298 299 299 300 300 300 301 302 302 302 303 304 304 304 304 304 305 305 306 307 307 307 308 309 310 311 311 312 313 313 314 314 314 315 316 316 315 315 315 313 316 318 315 316 318 318 321 321 320 320 319 320 325 323 320 323 324 321 321 324 324 321 322 322 314 314 319 321 321 322 324 325 320 319 319 318 318 318 319 319 319 320 319 319 319 319 319
298 298 298 299 300 300 300 300 301 302 302 302 303 304 304 304 304 304 305 306 306 307 307 308 309 310 312 311 311 313 313 314 314 314 315 316 317 315 315 316 314 316 320 319 318 319 320 321 320 319 320 319 320 322 320 318 320 322 323 322 321 321 321 323 321 314 316 320 320 322 322 322 322 319 318 319 318 317 317 317 318 318 318 318 318 317 318 318
298 298 298 298 299 299 300 300 301 301 302 302 302 303 304 304 304 305 305 306 307 307 307 308 308 310 311 311 311 311 311 313 314 314 314 315 317 316 316 316 314 316 320 320 319 320 320 320 320 319 319 320 321 321 318 317 318 320 321 320 319 320 320 321 321 317 316 320 321 321 321 321 320 319 317 317 317 316 316 317 317 318 318 318 318 318 319 318
299 298 298 298 299 299 299 300 300 301 301 302 302 303 303 304 304 304 305 305 306 307 307 308 308 308 309 310 311 312 311 311 313 314 314 315 316 316 316 316 315 316 319 319 319 320 319 318 318 317 317 318 319 319 319 318 317 318 319 320 320 321 320 318 320 319 314 318 324 321 320 320 319 319 316 315 316 314 314 315 315 316 316 316 316 317 317 318
298 298 298 298 298 299 299 299 299 300 301 302 302 303 303 304 304 304 305 305 305 306 306 307 308 308 308 309 311 312 312 312 312 313 314 315 316 316 315 316 316 317 318 318 320 320 318 317 316 316 316 317 319 319 320 320 318 317 318 320 320 320 319 317 318 319 315 317 322 320 319 319 317 318 315 313 314 313 312 313 313 314 315 315 316 316 316 317
298 298 298 298 298 299 299 299 299 300 301 301 302 302 303 303 304 304 305 305 305 305 306 306 307 308 308 309 309 311 312 312 312 313 314 314 315 316 316 316 317 316 317 318 319 320 319 317 316 315 316 318 320 320 320 320 320 318 317 318 319 318 317 317 318 318 315 316 322 321 318 317 316 316 314 312 313 313 313 313 313 315 315 316 317 317 318 317
298 298 298 298 298 298 299 299 299 299 300 301 301 302 302 303 303 304 304 304 305 305 306 306 306 307 307 308 309 309 311 312 312 313 314 314 314 315 316 317 317 315 317 319 317 318 318 317 315 314 315 318 320 320 320 320 320 319 318 317 317 317 315 316 317 316 316 317 320 320 317 315 315 314 314 313 312 313 314 314 314 315 315 316 317 318 318 318
298 298 298 298 298 298 299 299 299 300 300 301 301 301 302 303 303 304 304 304 305 305 305 306 306 306 306 307 307 309 310 311 312 313 314 314 313 315 316 317 317 316 316 318 316 316 317 317 315 314 315 317 318 319 319 320 320 319 318 317 316 316 316 316 316 316 319 319 316 317 316 314 314 315 314 312 312 312 312 313 313 314 316 316 316 317 318 319
298 297 298 298 298 298 299 299 300 300 300 300 301 301 302 302 303 303 304 304 305 305 305 306 306 306 306 306 307 308 310 310 311 312 313 313 314 315 316 316 317 317 316 317 317 316 316 315 315 316 316 316 316 318 318 319 320 318 318 318 316 317 316 317 317 316 319 319 315 316 315 313 314 316 315 313 313 313 312 312 313 313 315 315 316 317 318 318
298 298 298 298 298 298 298 299 299 299 300 300 300 300 301 302 302 302 303 304 305 305 305 306 306 307 306 307 307 308 309 310 309 310 312 313 314 315 316 316 316 316 315 316 316 316 316 315 316 317 316 316 316 316 317 317 318 318 318 318 317 316 316 317 318 316 318 318 315 315 314 313 314 315 319 320 317 316 315 314 312 312 314 315 315 317 318 318
298 298 298 298 298 298 298 299 299 299 299 299 299 300 301 301 302 302 303 303 304 306 306 306 306 307 306 307 307 307 308 309 309 310 311 312 313 313 315 316 316 316 315 315 316 317 316 316 317 317 316 317 317 316 317 317 317 318 318 319 318 316 316 316 317 317 318 318 317 317 317 317 316 316 320 322 320 321 321 318 314 310 312 314 315 316 317 317
298 298 298 298 298 298 298 299 299 299 299 299 300 300 300 301 301 302 303 303 305 307 306 306 307 306 306 307 307 307 308 310 310 310 310 311 313 313 313 314 316 316 314 315 317 316 315 316 317 317 317 318 317 316 317 316 317 318 318 320 318 316 316 316 317 318 318 318 317 317 317 317 317 317 317 317 317 319 320 321 319 312 311 314 315 315 316 317
298 298 298 298 298 298 298 298 299 299 299 299 300 300 300 301 301 303 303 303 306 307 305 306 307 307 307 308 308 307 307 309 311 311 310 311 313 313 312 312 313 316 315 314 316 315 314 314 315 316 318 317 317 316 316 316 316 316 316 319 318 315 315 316 317 317 317 318 316 316 318 317 316 317 317 316 317 317 317 319 319 313 312 314 315 315 315 316
298 298 298 298 298 299 299 299 299 299 299 300 300 300 301 301 302 303 303 303 305 306 304 306 307 307 308 309 309 308 307 308 311 312 311 312 313 312 311 311 311 313 315 314 315 314 312 312 313 315 317 316 317 317 316 316 315 314 316 319 318 316 317 317 318 318 318 318 316 316 319 318 316 316 316 317 319 320 317 317 316 313 313 315 316 316 316 316
299 298 298 298 298 298 298 298 298 298 299 300 300 300 301 301 302 302 303 303 305 306 304 305 307 308 309 309 309 308 307 308 309 311 312 312 312 311 311 312 310 311 312 313 315 314 311 313 314 314 314 315 317 316 315 315 314 315 319 321 319 317 318 318 318 319 318 317 316 317 319 318 317 316 317 319 319 319 317 316 317 315 313 314 315 316 316 315
299 298 298 299 299 298 298 298 297 298 299 299 299 300 301 302 302 302 303 303 304 305 304 304 306 308 308 308 309 308 307 307 308 310 311 311 312 312 311 312 312 312 312 313 315 315 313 312 313 312 312 314 317 316 315 315 315 317 320 320 318 318 319 318 319 320 319 317 317 318 318 318 316 314 317 320 319 318 315 313 315 314 313 315 315 315 315 315
299 299 298 299 299 299 298 298 298 298 298 299 299 300 301 301 301 301 302 302 302 303 304 305 306 307 307 307 308 308 307 307 308 310 310 310 312 312 312 312 312 313 314 313 315 316 315 312 311 312 313 314 315 316 316 317 316 317 318 318 317 318 319 317 317 320 319 317 318 318 317 319 318 315 316 316 315 316 313 311 313 313 314 315 315 316 316 316
299 299 299 298 298 299 299 298 298 298 298 299 299 300 301 300 301 302 302 302 302 304 305 305 306 307 307 307 307 308 308 308 309 309 310 310 311 313 313 312 312 312 313 313 314 315 316 315 312 313 313 314 314 315 315 316 317 316 317 317 316 316 318 317 316 318 317 316 318 318 317 320 319 316 315 312 311 312 312 313 314 313 314 315 315 316 316 316
299 299 299 299 298 299 299 299 299 298 298 299 299 300 300 300 301 302 302 302 304 306 306 305 306 307 307 307 307 307 308 308 309 309 309 310 310 312 313 312 312 312 312 313 314 314 316 315 313 312 312 314 314 313 313 316 317 316 316 317 317 316 318 319 317 316 316 317 318 317 319 320 317 315 313 311 312 312 311 312 313 313 315 315 315 316 316 317
300 300 300 300 299 299 298 298 299 298 298 299 299 300 300 300 301 302 302 302 304 307 308 306 305 307 307 307 307 307 308 308 309 309 309 309 309 310 311 311 311 311 312 312 313 314 315 315 313 312 312 313 314 313 313 314 317 317 316 317 316 315 317 318 315 314 315 317 317 317 319 319 316 315 315 315 317 316 314 313 311 313 314 314 314 315 316 316
301 300 300 300 300 299 299 299 299 299 299 299 299 299 299 299 301 302 301 302 302 304 306 305 305 306 307 307 307 307 308 308 308 308 308 309 309 309 310 311 311 311 311 311 312 313 315 315 312 311 313 312 311 312 312 312 315 318 317 317 315 314 317 317 315 313 313 315 316 317 318 316 316 317 315 315 316 316 319 317 311 311 312 312 314 315 315 315
301 301 300 300 300 299 299 299 299 299 299 299 299 299 299 299 300 301 301 301 302 302 302 302 304 306 307 307 307 307 307 308 308 308 308 308 309 309 309 309 310 311 311 311 312 312 312 313 312 311 313 311 310 312 313 312 312 314 316 316 315 315 316 316 316 315 314 314 315 317 316 314 315 316 313 314 317 315 316 317 314 313 312 312 313 314 314 315
301 301 301 300 300 300 299 299 299 299 299 299 299 299 300 299 299 300 300 301 302 302 302 302 303 304 304 306 307 307 307 307 308 308 308 308 309 309 309 309 310 311 310 310 312 311 311 312 313 311 311 311 311 312 313 313 311 312 314 315 315 315 315 315 316 315 314 314 313 315 316 314 314 314 313 316 319 319 318 318 317 313 310 312 314 314 314 315
302 301 300 300 300 300 299 299 299 299 299 299 298 299 300 300 299 300 301 301 301 301 302 302 302 302 303 304 305 305 306 307 308 308 308 308 309 310 309 308 310 311 311 310 311 311 310 311 312 310 309 311 312 312 312 314 312 312 314 314 314 315 315 315 316 314 315 314 312 313 313 313 316 315 313 314 316 317 318 320 320 313 310 313 315 314 315 315
302 301 300 300 300 300 299 299 299 299 299 299 298 298 299 299 300 300 300 301 301 301 301 302 302 302 303 303 303 304 305 307 307 307 307 308 308 309 309 308 309 310 311 311 311 311 309 310 311 311 310 310 312 311 311 312 313 312 313 313 314 314 314 315 315 315 316 314 313 313 311 314 320 317 311 311 313 312 311 315 318 313 311 314 315 314 315 315
301 300 300 300 300 300 299 300 300 299 299 299 298 298 298 299 300 300 300 300 301 300 300 301 303 302 302 303 303 303 304 306 307 307 307 307 308 308 308 308 308 309 310 311 311 310 310 310 310 310 310 310 311 311 312 312 312 312 312 312 313 314 313 314 313 314 315 314 313 314 313 313 319 319 314 312 311 308 307 309 313 312 312 314 313 312 314 314
301 301 300 300 300 300 300 300 300 300 299 299 298 298 298 299 299 300 300 300 300 300 300 300 302 303 302 302 302 303 304 305 306 307 307 307 307 307 307 308 308 309 310 311 310 310 310 310 308 309 310 309 309 310 310 311 312 312 313 312 312 313 313 314 315 314 314 314 314 315 314 313 314 319 318 312 307 307 307 308 310 311 311 312 310 310 313 314
301 300 300 300 300 299 300 300 300 299 299 299 298 298 298 298 298 299 300 300 300 300 300 300 301 302 302 303 303 303 303 304 306 306 307 307 307 307 307 307 308 309 309 311 311 310 310 310 309 310 310 309 309 309 309 310 310 311 311 311 312 312 313 315 317 315 313 313 314 314 314 314 314 315 314 311 312 313 310 308 311 311 310 310 309 309 312 314
300 300 300 300 300 299 300 300 300 299 299 298 298 298 297 298 298 299 299 299 300 300 300 300 300 300 302 303 303 303 303 303 304 305 306 307 306 305 305 307 308 308 308 309 309 309 310 310 311 311 311 311 311 311 310 309 310 311 312 311 311 312 313 313 314 313 312 313 314 313 313 313 313 313 312 314 318 317 311 308 310 311 309 309 309 308 311 313
300 300 300 299 299 299 300 300 299 299 299 298 298 298 297 297 298 298 299 299 299 299 300 300 300 300 302 303 303 303 303 303 302 303 304 307 307 305 304 304 305 306 308 309 309 309 310 310 310 311 311 311 311 311 312 311 310 311 312 312 311 311 312 312 313 313 313 313 313 313 313 312 312 312 314 315 317 319 316 310 307 309 309 308 308 308 310 312
300 300 300 299 299 299 299 299 299 299 299 298 298 298 297 297 297 298 299 299 299 300 300 300 300 301 301 302 302 302 303 303 302 301 303 306 307 305 303 302 302 304 306 307 307 309 309 309 310 310 309 310 310 310 312 312 310 311 311 311 311 311 311 312 312 312 313 313 313 312 313 313 312 311 312 314 316 319 317 309 306 309 310 308 308 308 309 312
300 300 300 300 300 300 300 299 299 299 298 298 298 298 297 297 297 298 298 299 299 300 300 300 301 301 301 301 301 301 302 303 303 302 303 305 305 305 305 304 303 304 305 305 305 306 308 308 309 310 310 309 309 310 310 311 310 310 311 311 311 311 311 311 312 312 312 313 313 313 313 313 312 311 311 311 312 313 312 309 307 309 309 308 307 307 309 312
299 300 300 300 300 300 300 299 299 298 298 298 298 298 297 297 297 297 298 299 299 299 300 300 300 301 301 301 301 301 301 301 302 302 303 304 305 305 306 305 304 303 304 305 306 304 305 308 309 309 309 310 309 309 309 309 310 310 310 311 311 311 311 311 312 312 312 313 312 313 313 312 311 311 311 310 309 308 309 309 307 307 308 307 307 308 309 311
299 300 300 299 299 299 299 299 299 298 298 298 298 298 297 297 297 297 298 299 299 299 299 299 300 300 301 301 301 301 301 301 302 302 302 303 304 304 305 306 307 305 303 305 306 304 304 308 308 308 309 309 309 310 309 308 309 309 309 309 310 311 311 311 311 311 312 312 312 312 313 312 311 311 311 309 308 308 308 307 306 307 308 307 307 308 310 311
299 300 300 299 299 300 299 299 299 299 298 298 298 298 297 297 297 297 297 298 298 299 299 299 299 299 300 300 300 301 301 301 301 302 302 302 303 303 304 305 307 307 305 304 306 305 305 307 308 308 309 309 309 309 309 309 308 308 308 309 309 309 309 310 310 311 311 311 312 312 312 312 311 311 311 309 308 308 307 305 305 307 307 306 307 309 310 311
298 299 299 299 300 301 300 300 300 299 299 299 298 298 298 298 297 297 297 298 298 298 299 299 299 299 299 300 300 300 300 300 301 301 301 302 302 302 303 304 304 307 307 305 306 306 305 307 308 307 308 309 309 309 309 309 309 308 308 308 308 309 308 308 309 309 310 311 311 312 312 311 311 311 311 311 310 309 306 305 307 308 306 306 307 309 310 310
Wind_Speed
23 23 23 23 22 21 21 20 20 20 20 21 21 21 21 20 19 18 17 16 15 15 15 15 15 14 14 15 16 18 19 20 21 22 25 22 16 15 16 16 16 16 16 15 17 17 15 14 14 13 12 10 7 8 9 8 8 5 2 2 3 4 4 5 7 7 4 2 3 1 3 4 3 4 5 5 5 7 9 9 7 9 9 6 6 6 7 8
24 24 24 24 24 23 22 21 21 21 21 21 21 22 22 22 21 19 19 17 16 15 14 15 14 14 15 16 16 17 18 20 22 24 24 21 19 19 18 16 15 15 15 14 14 15 15 15 14 13 12 9 7 7 8 8 10 7 3 2 5 5 5 5 8 8 4 2 4 2 3 3 4 5 5 4 4 6 6 6 7 8 8 7 8 8 8 9
23 24 24 24 25 25 24 23 22 21 21 22 22 22 22 22 22 21 20 19 17 16 15 14 13 14 15 16 17 16 17 20 23 24 21 20 19 19 18 18 17 16 15 13 12 12 14 15 14 12 11 9 7 7 7 7 9 7 4 3 7 6 5 6 8 9 5 2 3 4 2 2 3 4 4 4 4 4 6 7 8 9 10 9 9 9 10 11
24 24 24 24 24 24 25 24 23 22 21 22 22 22 22 22 22 22 22 20 19 17 15 14 14 15 15 16 16 16 17 19 18 16 14 15 16 16 17 17 18 19 17 14 12 11 11 13 14 12 9 7 8 7 6 9 8 5 6 5 6 6 4 8 10 7 3 2 2 1 1 1 2 2 4 5 5 2 8 12 10 9 9 10 10 11 12 12
24 24 24 24 24 24 24 25 24 24 23 22 22 22 23 22 22 22 22 22 21 19 17 15 15 15 14 16 16 14 12 9 6 6 7 9 9 11 13 15 16 18 17 15 13 11 9 10 11 11 8 6 6 5 5 11 9 4 5 5 5 8 4 7 10 7 3 3 2 2 2 1 2 3 4 6 6 3 6 9 9 5 6 7 9 11 13 14
24 25 25 25 25 24 24 24 25 25 24 24 23 22 22 22 23 23 23 24 22 20 18 16 15 14 14 16 16 12 7 4 1 3 4 5 5 8 10 11 12 14 15 15 14 11 9 8 8 9 7 4 5 5 5 10 9 3 4 4 6 9 5 4 7 8 5 3 2 2 3 5 4 4 5 7 8 6 3 4 6 5 6 7 8 11 13 14
25 25 25 25 25 25 25 24 24 24 25 25 24 23 22 22 22 22 23 24 23 21 19 18 15 15 16 16 16 14 15 17 11 6 9 10 9 8 7 7 7 10 12 14 15 12 10 9 8 7 4 2 4 6 5 6 8 5 3 3 6 9 8 5 5 6 6 5 6 4 5 6 4 5 5 7 11 11 7 6 6 7 8 8 10 12 13 13
25 25 25 25 25 24 24 24 24 24 24 24 24 24 24 22 22 22 22 23 24 22 21 19 16 16 16 16 18 15 23 28 16 11 15 14 12 8 6 5 3 7 9 13 16 14 11 10 9 6 3 2 3 5 6 3 4 5 5 4 4 7 8 6 6 6 7 7 7 7 8 11 10 8 7 11 15 14 11 10 10 9 9 9 10 12 13 14
24 25 25 25 25 25 24 24 24 24 24 24 23 24 24 23 22 21 21 22 23 23 21 20 17 17 17 18 18 15 26 31 18 15 17 14 13 9 5 6 4 4 6 11 15 15 13 10 10 7 3 3 3 3 4 4 3 5 8 6 3 4 5 5 7 7 6 6 5 5 7 13 13 8 9 16 20 19 16 14 13 13 13 12 12 13 14 15
24 24 25 24 25 25 25 25 24 24 24 24 23 23 23 23 22 21 21 21 22 23 22 21 19 16 18 22 18 12 21 21 12 14 17 17 16 11 8 5 6 5 4 8 13 16 15 11 9 7 3 3 3 3 2 4 3 2 4 5 3 5 6 5 6 6 5 5 7 6 7 13 12 5 6 10 14 18 19 19 18 17 17 17 16 15 16 17
24 24 24 24 24 25 25 25 25 24 23 24 24 23 23 23 22 21 21 20 21 22 22 22 20 18 19 23 21 16 19 15 8 10 11 14 16 14 12 8 6 6 4 5 8 14 16 13 9 6 3 1 2 3 3 4 3 3 1 3 4 5 7 7 7 9 6 4 8 9 7 13 8 4 10 10 10 14 15 16 17 18 18 18 19 19 19 20
24 24 24 24 23 24 24 24 24 24 23 23 23 23 22 22 22 21 21 20 20 20 22 22 21 20 20 25 30 28 26 22 18 15 14 14 14 15 15 13 11 8 7 5 5 9 14 16 12 7 4 1 1 1 2 4 4 3 1 2 6 6 6 7 7 8 5 3 6 6 4 9 6 9 18 16 13 15 17 18 18 19 19 18 19 20 20 21
23 24 24 24 23 23 24 24 24 24 24 23 22 23 23 22 22 22 21 20 19 20 21 21 21 22 22 26 31 29 28 27 26 22 17 14 12 14 14 14 12 9 10 8 5 6 11 14 13 10 4 1 1 0 2 3 2 3 1 1 3 5 6 7 6 6 5 5 7 7 3 7 6 15 25 21 19 20 21 24 25 24 24 23 23 23 24 24
23 23 24 24 23 22 23 23 23 23 24 23 21 22 23 22 22 22 22 21 20 20 21 21 22 21 24 30 29 27 27 24 25 28 25 19 13 12 12 11 10 10 11 9 6 6 10 12 10 8 5 3 3 3 3 3 1 2 1 0 0 1 5 6 4 7 6 9 10 10 5 8 5 12 18 16 17 20 21 24 25 26 27 27 27 27 28 27
23 23 24 23 23 23 23 23 23 23 23 22 21 22 22 22 22 22 22 22 20 20 22 22 22 20 22 29 29 29 30 27 27 28 27 26 20 13 9 8 8 9 9 6 5 6 10 11 8 4 3 4 2 3 3 3 3 1 2 2 1 3 5 6 3 9 10 9 11 11 5 8 7 13 17 15 14 16 18 22 22 23 25 26 27 28 29 30
23 24 24 23 23 24 24 23 22 23 22 21 21 21 21 21 22 22 22 22 20 21 21 20 22 21 17 19 23 25 27 32 34 29 25 26 26 18 9 6 7 7 6 4 5 7 10 9 5 3 2 2 2 3 3 2 3 3 1 3 2 3 3 4 5 9 13 6 6 10 6 4 4 10 13 13 15 16 17 20 22 23 23 24 25 27 29 30
23 23 23 23 23 23 24 23 21 22 22 21 21 21 21 21 22 23 22 22 21 20 21 19 17 17 18 17 16 18 22 28 30 29 27 24 26 23 12 6 9 8 5 6 7 9 11 9 5 3 1 1 2 4 2 3 3 2 0 3 4 4 3 2 4 4 8 5 4 7 7 6 8 10 10 9 10 11 14 19 21 21 22 24 26 27 29 30
22 23 23 22 22 22 22 23 22 21 21 22 21 20 20 21 22 23 22 22 22 20 19 22 17 10 14 20 18 17 19 22 23 24 27 25 23 23 16 9 10 10 7 6 8 10 10 7 4 1 0 2 2 4 5 5 5 5 5 4 3 3 3 4 3 1 2 4 5 6 6 9 13 15 18 20 16 12 14 19 23 26 27 30 31 31 32 34
22 22 22 22 22 22 21 21 21 20 20 22 22 20 20 21 20 21 22 22 20 15 10 14 21 13 3 5 15 24 24 21 18 18 23 26 24 21 17 13 12 13 9 5 7 11 10 5 3 3 5 7 8 9 9 5 6 9 6 3 2 4 5 4 4 3 2 3 5 8 8 9 13 15 17 23 20 16 18 21 25 29 31 32 33 33 33 35
21 21 22 22 22 22 21 21 21 21 20 21 22 19 17 15 12 13 19 25 26 24 15 9 18 26 17 7 2 15 27 29 20 16 20 25 26 22 19 16 12 12 9 4 5 10 11 5 5 9 9 10 12 11 7 3 3 4 3 3 4 4 6 3 3 4 1 1 5 7 8 9 12 15 16 20 16 12 16 19 23 28 30 32 33 33 33 34
21 21 21 21 21 21 21 21 21 21 20 21 21 17 15 13 8 5 10 21 30 33 31 24 19 24 28 20 9 3 12 20 19 17 18 22 27 23 19 17 9 7 9 5 5 8 9 7 11 11 8 7 8 7 5 3 2 3 4 4 4 5 5 4 3 5 2 0 4 4 7 10 11 13 16 18 13 11 17 19 23 29 31 32 33 34 34 33
21 21 20 21 21 21 20 20 21 21 20 20 20 19 19 19 15 11 7 10 21 29 34 36 32 28 27 23 20 15 8 7 13 20 20 20 27 22 17 16 8 5 8 7 6 7 8 11 12 9 6 6 6 7 7 7 4 2 3 3 3 4 3 5 4 4 1 1 4 3 6 10 11 12 14 17 16 17 22 26 28 31 29 30 32 33 34 33
21 20 20 20 20 20 20 20 20 21 20 19 20 22 22 21 19 19 13 6 10 20 26 33 37 39 37 28 23 22 17 10 9 18 22 22 26 26 18 13 9 8 9 10 10 9 8 9 8 9 7 7 6 8 8 6 6 6 3 3 4 2 1 3 4 3 1 3 4 3 6 10 10 10 12 20 27 26 25 29 32 33 31 32 33 33 33 33
21 20 20 19 19 19 18 19 20 21 21 19 21 22 21 22 21 20 16 7 6 13 21 28 33 38 41 36 27 22 21 19 14 14 22 26 25 23 18 15 12 9 9 14 13 10 9 5 9 12 8 9 7 6 9 7 7 7 6 6 5 2 3 4 2 4 3 2 3 2 7 10 9 11 12 16 24 26 23 23 27 32 34 34 33 33 33 33
20 20 20 19 19 18 18 19 21 21 20 21 23 21 20 22 21 18 12 6 5 9 16 19 22 32 39 36 30 22 17 20 24 21 22 28 28 18 13 17 14 9 13 16 12 10 11 7 10 11 8 10 9 6 9 9 5 6 8 10 7 4 4 3 2 4 4 4 2 1 4 7 3 8 10 8 10 14 13 13 19 28 32 33 34 36 36 34
20 20 19 18 18 17 17 19 20 18 19 23 24 20 19 20 20 18 9 3 4 4 10 13 12 19 27 28 29 23 10 15 29 32 24 26 31 22 11 12 9 9 14 11 7 6 7 6 8 9 10 12 10 8 8 8 5 5 6 9 10 7 6 5 1 1 2 4 2 3 2 7 4 3 7 5 5 9 7 6 13 23 29 31 35 38 38 36
20 19 19 18 17 16 17 17 16 16 17 21 20 17 18 18 18 15 6 4 6 6 9 13 13 13 17 24 31 22 5 9 23 32 30 26 31 25 11 9 7 7 10 7 6 5 4 8 7 8 11 9 8 8 7 10 7 5 4 10 11 10 9 7 4 4 3 2 4 2 3 5 8 6 6 6 6 9 8 6 9 18 25 30 34 37 39 40
20 19 18 18 17 18 18 17 16 16 16 17 15 14 15 16 16 10 4 4 4 8 7 13 19 18 17 24 34 28 11 9 12 22 36 32 29 21 7 9 10 8 11 10 8 3 5 11 11 10 9 7 10 9 9 13 7 4 5 9 9 9 9 6 4 5 3 3 7 6 4 4 10 5 1 3 7 8 9 9 9 14 23 27 30 34 37 39
20 19 19 18 17 19 19 18 20 19 17 16 15 13 12 15 13 5 4 5 1 1 2 11 16 16 22 23 28 32 21 12 7 12 31 31 28 21 6 10 12 8 12 14 12 5 3 13 17 14 10 9 11 9 11 14 7 3 6 5 3 4 5 5 4 4 1 2 12 7 7 4 9 4 2 1 5 7 7 8 9 14 22 26 27 29 31 33
20 19 19 17 18 20 18 19 21 19 18 16 13 11 10 12 9 4 7 4 1 3 2 7 6 10 23 18 15 23 19 11 7 10 21 21 25 23 9 8 9 4 7 11 14 8 1 8 14 12 10 10 9 7 11 14 8 5 6 6 5 3 2 2 2 2 1 7 13 7 10 7 7 3 6 4 5 7 8 8 8 13 19 23 24 26 26 26
20 20 19 18 20 20 18 21 20 16 17 17 11 9 10 9 5 5 7 1 2 4 2 2 3 7 17 14 11 17 14 10 10 11 11 10 16 17 7 5 4 0 2 6 10 8 3 6 7 5 8 9 7 4 5 9 9 6 4 4 4 2 1 2 1 3 4 9 7 7 11 9 7 6 4 3 5 6 8 9 9 10 16 22 24 24 25 25
21 21 19 20 22 22 21 22 18 13 14 16 13 10 9 6 4 5 3 3 3 4 2 3 5 6 12 12 10 13 13 10 10 10 9 6 7 9 8 8 6 3 4 4 7 8 5 5 2 1 8 12 9 4 2 5 7 5 4 5 4 2 3 4 5 4 6 7 2 9 10 6 9 14 9 8 8 6 8 10 11 12 16 21 21 21 23 23
22 22 21 21 23 24 23 21 17 14 12 12 14 12 7 5 5 7 5 2 2 2 1 2 3 6 12 12 8 10 11 9 11 12 11 9 7 9 13 13 10 7 5 4 7 7 4 4 6 4 6 13 13 7 4 4 7 7 6 6 6 5 5 6 7 4 4 6 3 7 6 2 8 12 11 14 14 13 15 17 19 18 18 19 17 16 18 19
24 24 23 23 25 25 23 20 17 15 12 11 11 8 7 7 4 6 8 8 4 3 1 1 2 5 11 12 10 11 9 7 12 12 10 10 7 7 12 13 13 9 3 5 7 8 8 6 9 10 6 12 15 11 9 7 7 9 7 6 7 6 5 6 6 4 3 2 3 5 3 5 8 3 4 8 8 11 17 20 22 21 20 20 18 17 18 18
26 26 26 25 26 26 24 22 19 17 14 12 9 5 6 7 4 3 5 6 3 2 2 1 1 4 7 10 9 11 10 7 11 11 10 12 9 6 9 12 15 12 6 6 4 7 12 8 9 15 12 15 15 10 10 10 6 8 7 7 9 6 3 2 3 5 3 0 2 4 3 6 6 5 5 4 3 5 9 14 18 21 25 24 22 23 23 20
27 28 29 29 30 29 26 23 20 18 17 13 6 6 8 7 4 3 3 4 2 1 1 1 1 3 6 6 6 9 8 4 8 10 9 12 12 10 11 10 14 16 11 8 4 4 9 5 9 15 11 13 17 13 11 11 7 4 7 8 5 2 4 1 3 1 3 2 4 5 6 7 6 10 9 6 5 6 5 7 11 18 24 24 25 29 27 22
30 31 33 34 34 31 28 26 22 20 20 13 7 9 7 7 9 6 3 2 1 1 1 2 3 3 4 4 5 10 8 3 7 8 6 9 10 11 14 10 12 18 15 12 7 2 5 5 5 13 13 13 19 17 11 13 12 5 8 9 3 2 2 1 4 1 2 3 4 7 11 9 5 7 5 4 10 11 8 7 6 10 15 17 24 30 27 21
33 34 35 37 36 33 31 27 23 23 20 10 11 15 9 6 11 10 8 6 2 2 1 4 4 2 3 4 3 8 9 6 7 7 6 7 6 10 16 11 10 17 20 18 9 2 2 5 3 10 15 10 12 13 7 13 13 4 5 10 5 2 4 4 5 4 3 5 5 5 10 9 8 8 2 2 9 11 9 8 7 8 12 17 22 24 21 18
31 28 28 34 35 34 32 28 27 26 18 8 11 13 6 6 10 11 13 11 3 2 2 3 4 2 2 3 3 5 9 9 8 7 6 6 4 11 17 12 9 14 20 20 11 3 1 4 4 6 10 8 8 8 8 10 8 1 4 8 3 3 6 5 6 5 5 7 7 5 6 7 8 8 5 5 7 8 8 9 8 11 16 21 20 15 15 17
26 18 16 27 31 30 31 29 28 22 12 8 10 7 3 5 7 11 17 14 5 4 5 4 5 3 3 4 4 3 6 9 10 7 6 7 6 7 13 13 8 11 18 19 13 7 2 4 5 2 3 6 7 9 13 15 10 4 5 6 4 4 2 1 3 5 4 5 5 6 8 7 5 5 8 10 11 10 10 9 8 12 18 21 17 16 19 20
20 9 8 20 24 27 32 27 19 13 6 7 9 7 7 5 5 10 17 17 9 4 5 6 6 4 3 4 5 3 3 6 10 8 5 7 8 5 9 17 13 11 14 13 11 10 4 3 7 3 2 7 8 11 16 15 13 10 8 9 10 9 6 4 6 6 4 4 5 4 8 8 4 4 8 11 11 11 12 10 8 12 18 17 16 20 22 22
14 5 8 17 20 29 35 19 8 8 8 9 9 9 11 9 6 7 11 14 12 5 2 3 4 4 3 4 5 5 3 3 7 9 5 7 9 6 10 21 22 16 13 9 11 13 6 1 4 3 4 8 7 6 5 5 11 13 11 11 12 11 10 9 9 7 4 6 5 2 6 10 5 5 7 8 9 10 13 13 10 13 18 18 18 19 20 23
11 7 11 16 23 36 33 9 5 9 8 10 11 12 13 10 6 6 8 9 8 5 4 3 3 6 6 4 4 5 5 4 5 7 6 6 9 10 10 19 22 14 10 7 8 9 5 1 3 3 1 4 6 5 6 2 7 10 11 11 11 11 12 9 6 5 3 6 7 5 9 12 5 4 6 6 6 6 10 13 13 15 18 20 20 20 22 25
10 9 14 20 30 39 26 5 8 13 9 10 12 12 13 11 10 9 7 8 7 4 5 6 5 7 6 5 5 5 5 5 5 6 7 4 5 7 5 15 19 11 8 10 9 9 7 4 6 6 2 1 4 5 4 2 5 7 9 12 12 12 11 5 2 3 5 9 12 9 10 10 4 2 2 4 6 6 9 15 18 18 20 23 22 21 24 27
7 6 13 27 40 43 29 16 13 10 10 13 12 12 12 11 13 14 10 8 10 7 5 6 7 8 6 4 4 5 5 4 4 5 6 4 3 3 3 13 19 13 13 17 16 14 8 6 8 9 7 6 6 6 6 4 5 4 3 7 11 13 14 8 5 7 8 10 11 10 10 9 5 2 2 2 6 6 9 15 19 20 22 25 24 23 24 27
5 3 5 15 29 32 26 21 15 8 9 12 9 9 13 11 9 15 15 11 13 12 7 5 6 7 5 5 5 5 5 4 3 3 3 3 3 2 4 8 10 13 21 23 20 14 4 6 11 12 12 11 9 7 6 7 7 7 6 11 14 16 17 13 9 10 10 9 12 11 11 14 13 8 6 4 6 9 9 9 14 20 23 24 25 27 28 30
5 3 5 7 11 16 13 12 13 8 7 10 6 6 14 14 6 10 17 13 13 14 8 5 6 7 7 10 8 6 6 5 4 3 4 3 3 3 4 4 4 9 16 16 17 12 2 6 14 15 16 16 14 12 7 9 12 14 14 16 16 15 17 16 13 14 12 11 13 13 13 17 18 14 11 8 8 9 7 9 16 24 27 27 28 29 31 32
7 3 9 13 9 7 9 10 11 9 7 10 8 4 10 15 11 10 12 8 9 14 10 8 12 14 13 13 10 8 7 6 4 5 4 3 3 3 4 4 4 5 5 2 7 5 1 7 13 14 16 18 18 16 11 8 10 14 17 19 18 17 18 19 18 18 16 14 12 14 17 18 17 17 15 11 9 9 11 16 21 23 25 27 28 30 33 35
11 6 8 15 10 3 7 9 9 9 10 10 9 8 11 16 18 14 7 4 8 15 14 11 16 19 18 16 11 9 9 8 7 8 8 7 7 5 4 4 5 7 4 3 3 1 0 5 10 12 15 18 18 18 14 10 9 11 16 19 20 21 21 21 21 21 21 18 14 15 19 18 15 14 14 11 10 15 19 19 18 18 23 28 31 33 37 38
13 11 6 10 10 4 4 8 8 8 10 9 10 12 12 13 17 14 9 9 10 9 12 19 21 17 15 15 13 13 14 13 12 11 11 10 9 7 5 4 3 4 4 5 3 3 2 2 5 7 10 14 16 16 15 14 13 13 15 16 18 19 18 19 19 18 18 19 18 19 20 17 12 10 14 16 13 15 16 15 18 23 29 33 35 37 39 40
18 18 12 7 7 6 6 5 6 7 7 9 12 12 11 15 19 13 9 14 16 11 14 24 23 11 9 13 14 15 17 15 16 17 18 17 15 11 8 7 6 4 3 4 4 4 4 1 3 2 5 9 13 15 16 16 16 17 18 17 15 15 14 15 15 16 17 18 19 21 17 13 12 12 16 19 13 10 11 16 24 30 34 36 37 39 39 40
24 24 20 11 5 8 9 4 5 8 7 8 12 13 14 19 17 10 7 15 24 26 22 18 13 8 7 11 18 25 29 26 24 23 20 20 20 16 12 11 10 8 6 4 3 3 5 3 1 2 3 5 8 10 12 12 12 12 15 17 18 17 15 14 14 17 19 17 15 15 13 13 16 16 17 20 16 10 12 20 26 29 32 35 37 40 42 42
Wind_Direction
283 283 284 284 282 280 276 272 269 268 265 263 263 264 267 271 272 274 278 280 279 277 278 279 283 288 293 295 296 295 295 293 288 283 277 276 280 274 268 269 270 273 274 273 266 259 247 236 233 230 231 230 234 225 215 218 200 176 135 150 203 189 192 191 184 194 164 187 254 348 156 168 165 166 160 158 185 189 185 199 213 212 219 230 220 215 211 204
282 282 281 282 282 281 278 274 271 269 267 265 263 263 263 266 269 271 273 277 279 279 276 273 277 284 291 293 294 297 297 295 290 283 280 281 280 270 264 265 266 267 270 274 268 258 246 236 230 229 231 230 230 216 207 205 192 178 121 166 217 196 200 206 189 192 161 177 225 135 108 158 183 173 162 178 192 176 186 212 216 219 220 212 211 211 207 204
281 280 280 279 279 279 279 277 273 270 268 266 264 263 261 262 264 266 269 271 275 278 278 274 275 280 285 289 292 299 303 302 295 287 283 281 277 271 264 259 258 261 264 269 268 259 247 237 232 229 231 233 226 212 201 193 194 194 156 187 236 209 223 244 203 186 183 237 201 136 99 137 172 170 179 203 173 169 204 212 216 227 223 210 210 211 206 204
281 280 278 278 277 277 277 277 275 271 269 267 264 263 262 262 261 261 265 267 270 273 277 277 273 272 275 281 287 296 307 310 300 287 280 274 271 268 264 257 253 256 258 261 261 257 249 237 232 229 229 236 227 219 209 193 192 189 172 196 226 187 213 240 204 188 196 194 159 102 359 123 160 207 222 194 148 210 233 216 221 231 223 211 209 210 207 207
280 280 278 277 276 275 275 275 275 272 270 268 266 264 262 262 261 260 262 264 266 268 273 276 272 269 269 274 279 288 309 321 300 282 278 272 271 273 271 263 255 253 251 252 251 247 243 231 225 222 223 233 218 216 223 202 185 171 203 218 193 163 191 236 204 201 214 177 177 348 343 297 284 272 232 191 173 219 238 216 213 213 213 216 217 212 209 212
281 280 278 277 275 274 273 273 273 272 271 270 268 267 265 262 260 259 258 260 263 265 269 273 273 268 264 268 271 271 271 256 211 58 13 326 304 299 295 283 265 256 250 243 240 236 228 211 203 204 206 223 209 204 219 201 188 198 236 230 200 183 192 223 194 203 220 214 255 306 302 302 315 298 253 214 215 227 242 210 197 203 212 220 224 219 216 215
282 280 279 277 275 273 272 271 271 271 270 270 269 269 268 265 261 258 255 257 260 261 262 267 273 270 263 261 262 258 244 243 246 270 306 314 310 315 320 306 269 252 246 236 232 224 216 200 193 195 183 204 215 213 226 202 188 201 240 229 213 212 212 209 189 201 222 245 277 293 295 287 283 293 273 238 243 246 256 250 227 224 213 213 223 224 226 225
282 280 279 278 276 274 271 270 269 270 270 269 269 269 268 267 265 261 256 255 258 259 259 262 268 269 266 256 252 249 244 249 252 262 283 289 284 300 340 351 286 242 236 231 228 218 213 202 195 199 184 209 212 208 221 220 202 199 222 224 195 215 220 224 235 240 246 258 274 278 276 269 266 275 268 260 259 253 258 255 241 237 225 224 231 231 232 231
282 279 278 276 275 273 271 270 269 268 269 267 267 267 267 266 265 264 260 255 255 258 258 258 260 264 266 254 244 243 251 260 264 259 268 272 269 270 301 356 354 261 233 227 226 216 214 205 199 201 207 241 230 219 206 200 235 208 209 217 191 234 242 243 251 252 258 263 263 261 267 269 269 274 265 260 256 251 258 257 245 245 243 243 244 240 240 237
283 278 278 277 274 272 271 270 268 267 266 266 266 265 265 265 264 264 262 257 254 256 256 254 255 256 262 253 235 235 259 269 275 261 261 259 259 255 257 315 344 315 258 233 227 218 214 207 200 199 228 274 220 230 211 180 236 236 210 228 232 258 273 269 258 258 262 267 246 226 249 263 260 257 251 246 245 248 254 255 252 250 248 249 251 249 248 246
283 280 278 277 275 273 270 269 267 266 266 265 264 263 263 262 263 262 260 259 254 255 255 252 254 251 259 254 228 228 255 260 263 270 273 265 258 252 250 265 304 320 300 258 236 226 217 209 199 191 215 280 212 227 240 224 259 316 323 278 282 287 284 264 260 267 259 265 243 216 244 265 254 235 238 225 227 242 247 252 253 251 250 250 252 253 251 251
285 282 280 278 277 273 270 269 265 264 265 264 263 261 260 259 259 259 257 257 254 254 254 252 252 247 256 255 238 240 255 256 259 266 272 275 268 257 254 259 274 290 293 297 266 235 221 215 209 200 205 203 203 193 261 258 260 297 24 288 301 336 308 255 249 261 236 233 225 193 268 265 226 232 243 235 230 241 247 253 256 256 256 254 254 255 252 254
286 283 281 278 276 274 271 270 266 264 264 264 262 260 259 257 256 257 256 254 252 252 252 250 251 247 253 257 252 256 261 259 260 257 259 271 274 266 261 264 270 267 271 286 282 235 217 215 210 211 219 172 203 32 318 304 243 260 70 139 310 343 306 255 230 229 220 237 190 154 260 246 218 243 246 244 238 239 243 248 253 256 258 258 257 256 255 257
286 283 280 278 277 275 272 269 266 264 263 264 262 259 257 255 253 253 253 252 250 250 248 247 249 250 255 258 258 260 260 263 261 251 249 257 268 273 265 266 266 250 256 272 266 227 201 199 196 209 227 222 269 336 338 353 60 223 201 144 277 219 276 276 225 192 207 247 195 160 248 247 245 253 243 242 237 233 237 242 247 250 254 258 259 259 259 259
287 284 280 279 277 274 271 269 265 262 262 263 262 259 255 254 252 249 249 249 247 247 246 246 247 250 262 264 260 257 255 255 254 249 245 246 251 264 268 262 253 239 245 256 237 197 182 184 185 199 219 221 258 357 351 352 14 41 181 272 309 194 265 300 258 190 199 238 195 171 251 264 261 254 243 242 236 231 236 241 245 247 251 255 258 261 262 262
288 283 279 279 277 275 272 270 266 263 260 260 262 261 257 254 252 247 246 247 246 244 244 247 246 245 261 268 258 255 253 247 246 247 245 240 238 243 262 259 237 233 232 207 169 162 167 172 178 191 184 176 152 81 39 346 333 357 166 234 259 201 239 301 283 215 208 227 194 198 240 273 279 261 248 241 236 233 236 245 250 251 254 257 260 264 265 265
289 285 281 280 278 276 272 269 268 264 260 257 258 261 259 255 254 249 244 245 246 242 241 243 246 248 253 258 253 244 243 244 244 244 241 237 233 231 241 250 226 221 207 174 161 160 167 169 170 195 167 119 132 109 90 247 256 327 271 225 240 198 173 243 296 253 212 214 223 227 239 254 271 272 262 254 240 229 234 250 259 261 265 268 270 272 271 270
291 288 284 281 279 276 272 269 267 265 262 256 256 259 257 253 252 248 243 242 244 243 244 238 233 250 253 245 242 237 239 244 245 242 235 232 229 225 224 232 223 212 191 175 179 171 171 171 151 158 263 175 152 149 188 213 195 193 201 210 237 214 199 224 260 311 167 196 225 235 246 254 264 267 264 262 258 248 251 262 270 273 274 275 275 273 271 272
291 288 285 282 280 277 274 269 267 267 265 259 257 258 256 253 251 249 243 238 234 228 235 227 216 218 281 268 235 234 241 246 245 242 232 226 223 217 213 219 217 207 191 179 189 178 171 155 135 196 218 200 193 192 197 186 176 191 187 176 185 211 235 231 240 250 144 162 229 233 240 248 258 265 263 261 260 258 261 266 269 271 272 272 272 270 268 269
291 288 285 282 279 277 273 270 267 267 266 262 259 262 258 247 246 251 241 236 233 225 226 228 217 223 243 309 285 224 234 240 241 236 229 224 217 206 201 205 204 200 200 181 182 180 170 173 206 211 207 200 202 201 193 140 137 158 146 196 205 208 251 248 254 289 54 163 242 233 238 246 255 264 267 264 262 252 252 257 259 262 266 267 270 271 269 267
290 288 286 283 279 275 271 269 266 263 263 260 257 261 251 229 223 238 232 236 239 234 234 238 236 235 241 255 271 241 230 235 235 229 229 221 210 202 194 192 186 194 201 172 161 174 168 203 223 211 199 190 190 187 197 217 133 112 156 212 234 216 252 267 251 288 356 326 266 253 256 254 249 259 269 269 261 239 240 247 254 259 262 264 267 269 268 267
288 287 286 283 280 276 272 269 265 260 258 255 251 252 249 240 237 241 241 247 247 241 238 237 239 245 244 244 247 250 256 250 229 222 222 209 200 197 186 182 186 190 185 166 167 179 192 227 225 196 167 137 145 169 195 227 224 207 170 172 249 227 262 292 273 283 16 189 279 288 269 260 252 252 262 265 260 249 243 244 251 256 258 259 262 264 265 267
286 285 284 283 280 277 272 268 266 261 257 252 248 248 250 251 248 250 254 273 266 248 239 236 236 240 242 242 240 241 246 256 241 218 209 198 193 194 183 176 194 188 175 186 195 194 208 233 206 172 154 136 148 177 183 213 225 225 195 172 236 214 175 274 287 312 255 216 262 298 286 270 258 253 254 255 255 255 247 244 250 252 254 258 259 263 264 265
284 282 281 281 279 277 273 270 265 261 258 253 251 248 248 253 251 253 255 269 283 250 242 241 236 235 237 237 234 232 235 236 241 229 206 195 189 192 192 182 189 191 188 200 204 210 231 232 169 164 162 162 169 178 181 204 226 224 218 215 223 182 194 236 298 321 310 294 284 319 300 279 246 237 246 247 249 255 250 240 245 249 251 256 258 259 259 259
281 280 280 279 278 276 273 271 264 260 260 255 253 248 247 253 252 254 259 266 264 235 240 244 238 237 237 234 228 222 229 229 229 230 216 202 190 186 199 192 190 198 196 198 203 222 243 229 172 163 161 176 184 192 191 196 219 234 227 221 209 174 202 238 340 351 340 317 310 90 284 281 242 228 250 257 246 255 253 232 238 246 249 251 253 254 254 254
279 278 278 276 276 274 269 271 268 264 262 256 254 248 246 252 255 261 262 261 269 203 210 212 215 234 228 221 215 209 228 235 227 229 226 215 202 191 195 193 193 207 192 187 202 226 232 201 169 165 172 182 191 205 198 177 189 244 228 199 197 193 204 216 166 103 250 267 281 102 216 271 297 246 246 261 264 265 262 237 239 244 246 247 249 252 253 254
276 274 275 273 274 270 263 267 271 266 257 256 258 250 247 248 250 257 250 257 253 161 163 184 190 213 207 201 198 190 214 220 216 226 224 220 212 201 201 192 185 200 177 161 210 214 166 170 170 175 179 182 197 209 189 163 174 250 198 166 187 201 205 204 178 202 237 282 278 210 151 268 282 263 234 217 241 272 274 267 254 245 244 246 247 251 252 252
274 272 273 269 268 265 259 262 265 261 257 267 271 254 250 247 239 239 224 264 225 154 157 184 195 205 190 187 188 186 206 182 178 221 220 219 215 201 209 215 199 191 171 171 212 203 128 173 180 177 182 189 205 206 171 164 186 235 165 153 182 193 196 196 181 226 281 5 276 246 136 261 272 260 267 192 214 253 265 261 260 247 244 245 247 251 251 251
272 270 270 268 266 262 258 257 255 255 259 266 264 252 249 237 225 212 223 254 309 90 159 173 189 190 166 164 182 193 208 195 152 206 207 210 210 200 220 235 220 209 185 189 214 216 173 195 184 171 189 205 206 199 168 174 200 203 142 108 109 149 170 182 180 213 329 286 258 237 142 229 271 232 162 166 211 229 247 252 251 248 246 245 246 250 252 252
270 268 266 265 263 258 255 255 252 254 259 257 254 249 239 220 207 215 231 232 319 259 157 149 180 168 157 153 179 195 202 201 165 169 187 192 198 200 217 230 220 220 197 206 220 220 159 187 181 175 199 200 186 182 176 181 175 114 101 74 56 60 88 106 137 140 120 251 251 213 157 198 272 243 174 199 213 197 211 237 244 248 247 245 245 248 251 253
267 265 261 258 258 256 253 253 254 256 255 253 258 243 214 203 195 223 230 270 321 243 119 143 237 164 161 160 175 188 196 202 173 160 178 179 185 194 198 205 199 163 211 213 219 219 131 155 184 194 189 163 140 152 178 178 161 117 108 115 87 36 68 96 145 157 197 248 243 170 168 185 238 249 188 222 252 208 207 225 230 238 244 245 247 250 253 256
266 262 258 253 253 254 250 252 256 256 253 251 249 225 199 210 224 228 259 3 306 248 121 208 218 172 173 174 177 181 186 195 176 168 183 181 186 189 192 198 178 181 227 199 204 214 188 178 219 206 169 158 144 139 157 170 171 154 137 140 136 181 188 187 210 194 215 256 219 164 173 171 237 252 246 243 255 240 224 227 228 233 240 245 251 254 257 258
266 260 256 250 248 250 248 251 252 246 249 245 230 215 206 235 218 208 232 247 248 276 307 239 230 184 174 175 188 182 183 191 176 178 189 186 198 199 203 208 190 197 226 186 197 210 193 198 195 187 180 172 165 163 181 178 178 182 169 163 168 175 195 212 216 214 228 251 223 176 163 167 250 261 252 239 239 231 227 230 234 236 240 247 255 259 259 259
263 258 255 247 246 249 246 247 244 239 244 230 214 216 230 251 229 192 216 227 244 310 337 4 291 225 183 181 194 175 176 202 180 181 190 189 202 200 205 213 202 206 215 181 203 202 207 220 186 185 181 168 177 188 180 158 169 190 184 185 194 187 201 213 204 209 232 258 212 186 170 202 218 247 241 237 250 241 237 239 241 245 250 255 262 263 263 261
261 256 251 245 242 242 241 239 233 231 229 207 200 224 230 244 247 192 220 238 243 301 287 306 336 264 211 197 203 184 186 202 181 184 195 196 206 195 196 209 203 202 198 197 213 201 219 235 174 184 177 160 181 197 165 149 173 199 184 192 216 206 176 194 193 184 185 295 200 196 230 224 227 300 280 245 312 278 251 245 240 245 251 255 261 261 260 258
261 254 247 242 237 234 234 231 222 223 217 193 194 238 226 229 224 189 234 244 205 166 291 330 141 257 240 203 202 203 199 178 173 192 205 203 211 205 202 208 199 199 202 204 212 190 220 234 158 174 180 172 183 181 164 165 166 184 194 198 215 168 113 153 251 129 106 223 216 191 236 257 276 293 276 244 269 286 274 246 226 234 244 249 254 255 254 252
259 252 246 240 234 230 228 222 215 214 208 195 214 232 220 216 206 198 205 215 258 218 182 257 228 224 243 221 192 193 187 157 182 197 202 201 212 209 207 212 198 199 206 212 223 202 217 246 162 166 188 198 184 172 178 189 175 166 203 188 131 66 98 153 240 314 81 242 241 199 222 237 235 264 277 230 241 249 255 258 243 242 245 244 248 250 249 248
260 254 246 240 235 229 222 216 211 208 199 196 232 232 229 220 205 197 192 191 263 1 95 245 240 216 232 232 214 189 181 182 192 192 191 199 211 196 198 212 203 199 207 211 224 298 216 248 251 185 192 185 160 162 193 208 198 190 179 164 133 199 209 182 210 231 203 232 262 220 218 226 217 226 256 231 232 231 241 258 264 260 247 244 252 251 240 235
263 253 243 241 235 226 219 210 202 198 193 206 235 228 226 228 216 207 205 204 187 129 183 231 223 261 267 225 243 200 189 197 195 190 196 197 207 195 191 197 198 196 201 204 213 267 224 220 254 215 190 159 144 172 200 208 211 24 138 164 172 225 207 196 213 230 215 225 250 236 213 224 225 215 197 217 232 219 224 238 242 243 239 243 250 234 205 198
259 244 241 242 232 220 211 201 194 191 195 223 228 221 214 218 222 220 215 210 183 173 212 216 198 232 265 236 257 241 208 212 202 199 204 188 201 211 191 188 186 186 194 199 207 218 217 216 226 233 154 166 176 193 199 197 192 175 171 181 202 218 215 245 234 231 214 213 238 247 243 243 238 206 191 206 221 213 209 215 218 227 231 233 224 190 176 173
249 232 234 235 226 208 194 187 190 195 206 231 227 227 231 218 211 220 217 213 212 211 218 215 203 208 234 240 246 225 221 232 211 207 218 195 203 227 192 187 185 178 185 195 208 207 201 211 209 195 162 193 200 205 210 202 180 178 190 186 191 200 203 223 228 219 201 206 212 231 258 259 241 207 200 204 216 219 215 211 209 220 220 212 192 177 172 169
232 225 217 218 215 194 183 178 192 199 211 225 222 221 222 225 216 204 205 207 212 218 226 228 204 189 203 237 247 223 193 241 228 212 215 210 213 225 196 189 189 184 179 193 209 200 182 144 207 212 204 209 217 222 236 204 173 185 202 197 195 199 200 212 221 209 194 223 226 236 269 263 236 187 200 208 214 223 223 214 205 212 208 189 176 176 175 172
213 227 215 219 214 189 178 181 208 200 221 218 217 223 217 224 223 188 186 195 197 192 198 216 201 202 209 199 229 235 196 207 237 221 227 231 224 235 210 189 190 184 174 197 210 188 161 107 220 241 283 257 268 303 344 17 168 192 213 206 201 204 207 212 213 203 203 214 213 228 252 256 249 199 202 199 195 210 219 214 208 207 196 181 176 179 177 176
219 223 196 202 204 186 176 201 207 206 223 203 211 224 214 224 229 207 195 188 181 171 191 211 207 211 220 177 176 226 218 215 225 218 229 231 226 260 246 196 195 183 177 199 187 166 175 193 208 224 248 256 257 271 294 275 191 199 214 213 211 207 206 206 162 199 226 211 207 222 242 251 274 282 230 145 154 181 203 207 208 204 190 182 183 184 182 183
207 217 189 189 191 183 185 208 207 206 209 199 214 220 212 230 229 216 212 198 195 185 179 218 208 195 209 177 167 211 226 237 239 218 223 222 233 302 274 218 211 198 202 204 178 163 184 201 203 217 219 202 208 219 219 210 202 207 210 213 217 210 203 202 203 218 228 220 217 226 242 252 273 312 291 170 164 191 211 208 207 204 193 187 187 188 188 188
184 189 193 188 193 196 203 209 208 212 202 199 213 210 209 228 225 212 213 209 206 199 197 233 206 180 195 191 195 218 212 218 245 262 263 235 238 237 203 231 235 220 220 209 178 162 181 214 211 220 227 225 230 228 189 154 178 204 202 206 212 212 208 206 211 221 222 227 232 227 232 250 252 238 231 216 191 204 217 209 204 206 201 192 190 191 191 192
201 182 184 173 203 226 235 223 214 218 191 184 191 194 207 218 224 209 208 206 201 196 210 247 202 190 208 200 209 228 202 194 212 238 259 246 269 282 225 244 275 248 245 223 185 174 176 217 219 225 230 232 240 241 200 160 184 202 208 215 215 210 211 213 219 221 215 224 237 229 223 240 248 239 225 218 213 212 210 205 205 206 203 198 195 195 194 195
227 258 207 186 184 219 232 224 213 207 179 173 184 188 201 210 218 214 204 194 187 188 202 228 208 206 210 201 208 221 200 196 206 198 215 240 267 287 262 251 220 219 269 263 181 184 246 228 223 224 230 234 236 237 223 190 195 201 206 216 216 210 210 215 222 223 220 226 236 234 230 234 244 247 239 222 206 205 212 214 211 208 204 201 198 197 198 197
232 276 232 203 204 216 210 202 185 192 197 185 194 212 205 208 216 215 188 152 201 201 200 219 218 211 209 203 203 215 205 197 210 206 201 214 221 216 238 266 229 199 181 129 158 184 271 240 233 224 230 238 236 234 230 219 215 214 215 216 215 213 210 213 220 223 226 233 238 241 244 242 242 250 255 247 215 208 215 214 205 204 205 202 201 200 200 200
248 253 232 210 230 253 200 188 169 186 205 194 209 222 214 216 221 214 187 186 211 201 191 221 228 212 207 211 206 217 218 204 209 212 194 202 217 210 211 228 207 187 162 138 164 184 155 257 263 230 229 240 238 235 230 222 221 226 226 224 222 221 215 215 220 222 226 234 238 241 248 250 249 253 261 259 231 203 204 198 195 206 208 203 202 202 201 201
292 265 242 221 234 213 197 195 169 186 207 201 215 219 211 226 225 210 202 214 219 206 193 217 228 212 207 224 219 228 231 216 218 219 200 200 211 204 203 208 182 162 158 151 159 165 168 255 315 244 235 243 236 234 232 228 228 230 229 227 227 228 223 218 218 219 222 226 230 236 243 247 249 249 253 255 235 190 186 191 198 208 208 203 202 202 202 202
316 285 256 241 237 200 196 194 170 198 213 204 217 218 214 228 221 186 205 225 220 221 218 215 219 209 214 226 220 226 229 224 228 232 219 214 221 216 211 209 190 169 161 159 154 159 174 197 236 223 248 262 248 241 235 229 230 232 227 221 220 223 222 219 218 221 222 221 224 230 234 237 243 244 247 251 241 211 197 198 203 210 210 205 204 204 203 204